Snowfall_Accumulation
0.3 1.5 2.6 1.3 1.1 1.3 1.5 2.3 2.2 1.0 0.6 0.9 0.7 0.5 0.1 0.0 0.1 0.2 0.0 0.0 0.0 0.0 0.0 0.0 0.0 0.0 0.0 0.0 0.0 0.0 0.0 0.0 0.0 0.0 0.0 0.0 0.0 0.0 0.0 0.0 0.0 0.0 0.0 0.0
1.7 3.1 0.8 0.2 0.5 1.4 2.2 2.8 2.3 1.1 0.5 1.1 1.1 0.6 0.1 0.1 0.1 0.1 0.1 0.1 0.1 0.0 0.0 0.0 0.0 0.0 0.0 0.0 0.0 0.0 0.0 0.0 0.0 0.0 0.0 0.0 0.0 0.0 0.0 0.0 0.0 0.0 0.0 0.0
2.9 1.1 0.2 1.0 1.7 2.8 2.5 2.5 1.8 1.6 1.0 1.1 2.0 1.4 0.2 0.2 0.1 0.1 0.1 0.1 0.1 0.1 0.1 0.1 0.0 0.0 0.0 0.0 0.0 0.0 0.0 0.0 0.0 0.0 0.0 0.0 0.0 0.0 0.0 0.0 0.0 0.0 0.0 0.0
2.1 0.4 0.3 1.4 2.0 2.8 3.3 1.0 0.9 1.3 2.6 3.3 3.0 4.3 0.4 0.4 0.3 0.4 0.3 0.2 0.2 0.2 0.2 0.2 0.1 0.1 0.1 0.1 0.1 0.0 0.0 0.0 0.0 0.0 0.0 0.0 0.0 0.0 0.0 0.0 0.0 0.0 0.0 0.0
2.6 0.9 0.9 1.7 1.2 1.5 1.9 0.6 1.0 1.7 3.1 4.2 2.4 4.3 1.3 0.4 0.5 0.4 0.4 0.3 0.3 0.4 0.4 0.3 0.1 0.1 0.2 0.2 0.2 0.0 0.0 0.0 0.0 0.0 0.0 0.0 0.0 0.0 0.0 0.0 0.0 0.0 0.0 0.0
2.4 0.5 1.4 1.2 0.3 0.6 0.9 1.1 1.6 2.3 4.3 9.4 3.0 3.6 2.4 1.5 1.6 0.8 0.6 0.4 0.4 0.4 0.5 0.3 0.2 0.1 0.2 0.3 0.2 0.0 0.1 0.0 0.0 0.0 0.0 0.0 0.0 0.0 0.0 0.0 0.0 0.0 0.1 0.1
3.5 1.9 1.0 0.6 1.7 1.2 2.2 6.2 12.1 12.2 12.5 7.3 0.8 2.1 2.1 1.5 1.2 1.3 0.8 0.5 0.4 0.4 0.6 0.7 0.4 0.3 0.2 0.3 0.3 0.2 0.1 0.0 0.0 0.0 0.0 0.0 0.0 0.0 0.0 0.0 0.0 0.1 0.2 0.2
5.4 4.1 1.6 1.0 1.5 2.4 2.4 4.9 10.0 9.2 5.8 2.0 0.9 2.1 1.9 1.0 0.7 0.7 0.4 0.3 0.2 0.2 0.3 0.5 0.6 0.4 0.1 0.2 0.2 0.3 0.2 0.1 0.0 0.0 0.0 0.0 0.0 0.0 0.0 0.0 0.0 0.1 0.2 0.2
6.0 3.8 1.4 0.6 0.7 1.5 3.7 4.3 3.0 6.0 4.8 3.1 2.0 1.5 1.2 0.5 0.3 0.3 0.3 0.3 0.3 0.3 0.2 0.4 0.4 0.4 0.3 0.2 0.2 0.3 0.3 0.1 0.1 0.0 0.0 0.0 0.0 0.0 0.0 0.0 0.0 0.1 0.1 0.1
5.9 5.1 1.6 0.3 1.0 1.3 1.6 2.8 4.7 9.5 8.3 4.3 2.1 1.9 2.0 1.1 0.9 0.7 0.5 0.5 0.4 0.3 0.3 0.3 0.3 0.4 0.3 0.3 0.2 0.2 0.2 0.1 0.1 0.1 0.1 0.1 0.0 0.0 0.0 0.0 0.0 0.0 0.0 0.0
5.2 6.6 3.3 2.3 3.7 4.5 3.9 4.7 6.5 8.3 6.5 4.8 2.9 2.5 2.3 1.6 1.3 1.2 0.8 0.7 0.5 0.4 0.4 0.5 0.4 0.5 0.4 0.4 0.5 0.2 0.1 0.1 0.1 0.1 0.1 0.1 0.1 0.0 0.0 0.0 0.0 0.0 0.0 0.0
5.1 7.1 5.2 2.3 1.5 1.8 3.0 5.0 6.6 9.9 6.9 3.5 3.1 2.4 1.4 1.2 1.2 1.2 0.9 0.6 0.5 0.3 0.3 0.3 0.3 0.5 0.5 0.6 0.4 0.4 0.2 0.1 0.1 0.1 0.1 0.1 0.1 0.0 0.0 0.0 0.0 0.0 0.0 0.0
7.8 10.4 10.3 3.9 2.8 2.6 4.5 4.2 5.0 6.2 6.2 4.0 2.8 1.7 0.7 0.7 0.6 0.5 0.6 0.6 0.5 0.2 0.2 0.2 0.4 0.6 0.7 0.7 0.5 0.3 0.3 0.1 0.1 0.1 0.1 0.0 0.0 0.0 0.0 0.1 0.0 0.0 0.1 0.0
7.3 11.8 8.3 6.8 5.1 5.0 5.0 3.6 3.5 6.2 7.9 4.0 1.6 1.2 0.8 0.9 0.8 0.8 0.5 0.7 0.5 0.3 0.2 0.2 0.5 0.7 0.8 0.6 0.3 0.2 0.1 0.1 0.1 0.0 0.1 0.1 0.1 0.3 0.2 0.1 0.0 0.1 0.0 0.1
7.8 9.8 4.3 2.2 1.7 2.5 2.7 2.3 2.5 3.6 3.6 2.9 1.3 1.2 1.1 1.0 1.2 1.1 0.8 0.7 0.6 0.6 0.3 0.3 0.6 0.8 0.8 0.7 0.5 0.1 0.1 0.1 0.1 0.2 0.1 0.1 0.1 0.0 0.3 0.2 0.1 0.0 0.2 0.1
7.9 9.0 4.2 2.2 1.2 1.8 2.2 1.6 1.6 1.8 1.3 1.2 1.0 1.3 1.1 1.1 0.9 1.0 0.9 1.0 1.1 0.8 0.6 0.4 0.6 0.9 1.0 0.8 0.4 0.1 0.0 0.1 0.1 0.1 0.1 0.1 0.3 0.3 0.3 0.0 0.1 0.0 0.4 0.4
9.0 9.7 8.3 4.3 1.5 3.3 3.9 1.5 1.3 1.5 1.3 1.2 1.5 1.6 1.1 1.1 1.1 1.3 1.1 1.1 1.2 1.1 0.7 0.7 0.6 0.9 1.1 0.7 0.3 0.0 0.0 0.0 0.0 0.1 0.1 0.2 0.3 0.4 0.3 0.1 0.0 0.1 0.3 0.4
7.5 9.2 11.6 7.6 5.5 7.9 2.4 1.2 1.1 1.4 1.5 1.2 1.2 1.0 1.2 1.4 1.1 1.0 1.2 1.3 1.2 1.2 1.3 0.8 0.6 1.0 0.9 0.6 0.2 0.0 0.0 0.0 0.0 0.1 0.2 0.4 0.3 0.4 0.2 0.1 0.1 0.2 0.2 0.3
3.2 8.1 12.8 10.9 7.7 3.5 1.5 1.6 2.1 2.7 2.6 1.5 1.0 0.6 0.6 0.8 0.6 1.3 1.0 0.9 1.1 1.0 1.1 0.9 0.5 0.6 0.7 0.4 0.1 0.0 0.0 0.0 0.0 0.1 0.2 0.4 0.3 0.3 0.2 0.2 0.2 0.4 0.6 0.3
2.8 6.5 13.3 12.0 8.7 3.8 2.1 1.5 1.6 2.5 3.6 1.8 1.2 0.9 0.7 1.1 1.8 1.8 1.1 0.9 0.8 0.7 0.7 0.5 0.3 0.4 0.4 0.3 0.1 0.0 0.0 0.0 0.1 0.1 0.2 0.4 0.2 0.2 0.3 0.3 0.2 0.3 0.5 0.7
7.2 11.4 13.5 10.0 7.6 2.5 1.7 1.7 1.6 4.2 4.8 1.8 1.4 1.2 1.1 1.5 1.9 1.8 1.0 1.1 0.9 0.7 0.6 0.2 0.1 0.2 0.3 0.3 0.1 0.1 0.0 0.1 0.1 0.1 0.2 0.4 0.2 0.2 0.2 0.2 0.2 0.2 0.4 0.5
5.7 8.5 8.5 7.5 8.0 3.6 1.8 2.6 4.5 4.7 2.2 1.4 1.3 1.0 1.0 0.9 0.6 0.7 0.9 1.0 0.9 0.8 0.5 0.2 0.3 0.4 0.2 0.3 0.1 0.3 0.2 0.1 0.1 0.1 0.2 0.4 0.1 0.1 0.1 0.2 0.3 0.4 0.4 0.6
4.1 5.2 6.1 5.7 3.9 2.2 1.8 2.6 2.4 1.8 1.7 1.3 1.2 0.9 0.9 0.8 0.7 0.5 0.8 1.0 1.3 0.8 0.5 0.2 0.4 0.4 0.1 0.2 0.3 0.4 0.1 0.1 0.1 0.2 0.2 0.4 0.2 0.2 0.2 0.3 0.4 0.4 0.9 0.9
3.2 2.7 3.9 3.7 2.0 1.5 1.1 1.2 1.0 0.9 1.1 0.9 0.8 0.8 0.9 0.8 0.6 0.5 0.6 0.9 1.2 0.8 0.6 0.6 0.5 0.5 0.6 0.2 0.3 0.5 0.4 0.3 0.2 0.2 0.2 0.4 0.3 0.4 0.3 0.3 0.4 0.9 1.1 2.2
2.5 2.7 3.0 2.6 1.4 1.1 1.0 0.9 0.7 0.6 0.7 0.7 0.6 0.6 0.7 0.6 0.6 0.6 0.7 1.0 1.2 0.8 0.6 0.6 0.7 0.7 0.7 0.5 0.4 0.5 0.5 0.4 0.3 0.3 0.3 0.4 0.4 0.6 0.5 0.6 0.6 1.1 1.2 2.7
1.2 1.6 2.3 1.9 1.2 1.5 1.4 0.9 0.7 0.6 0.7 0.8 0.9 0.8 0.5 0.6 0.7 0.7 0.7 0.8 0.9 1.2 0.8 0.7 0.6 0.8 0.8 0.8 0.6 0.6 0.7 0.7 0.6 0.4 0.4 0.4 0.7 0.7 0.7 0.6 0.7 0.6 1.0 1.5